Hourly Data Report for May 18, 2017

All times are specified in Local Standard Time (LST). Add 1 hour to adjust for Daylight Saving Time where and when it is observed.

CHARLOTTETOWN A
PRINCE EDWARD ISLAND

46°17'21.000" N
63°07'09.000" W
48.50 m
8300301
71706
YYG

Download Data

Hourly Data (May 2017)
Hourly Data Report for May 18, 2017
Temp Definition
°C
Dew Point Temp Definition
°C
Rel Hum Definition
%
Wind Dir Definition
10's deg

Wind Spd Definition
km/h
Visibility Definition
km
Stn Press Definition
kPa
Hmdx Definition


Wind Chill Definition


Weather Definition


TIME
00:00 Legend Double Dagger 13.2 8.3 72 16 6 24.1 100.32     LegendNANA
01:00 Legend Double Dagger 12.1 8.6 79 18 9 24.1 100.20     LegendNANA
02:00 Legend Double Dagger 12.0 8.5 79 17 10 24.1 100.16     Cloudy
03:00 Legend Double Dagger 11.5 7.6 77 15 10 24.1 100.11     LegendNANA
04:00 Legend Double Dagger 11.3 8.0 80 18 16 24.1 100.05     Rain
05:00 Legend Double Dagger 10.6 9.0 90 18 7 24.1 100.05     Rain
06:00 Legend Double Dagger 11.7 10.3 91 20 11 24.1 100.06     LegendNANA
07:00 Legend Double Dagger 13.8 10.1 78 19 12 24.1 100.06     LegendNANA
08:00 Legend Double Dagger 14.6 10.3 75 24 15 24.1 100.11     Mostly Cloudy
09:00 Legend Double Dagger 17.2 11.5 69 30 12 24.1 100.13     LegendNANA
10:00 Legend Double Dagger 19.3 11.4 60 31 13 24.1 100.13     LegendNANA
11:00 Legend Double Dagger 21.0 13.1 60 31 8 24.1 100.10     Mostly Cloudy
12:00 Legend Double Dagger 22.3 13.8 58 24 13 24.1 100.06 26   LegendNANA
13:00 Legend Double Dagger 23.2 14.1 56 34 13 24.1 100.04 27   LegendNANA
14:00 Legend Double Dagger 23.1 14.5 58 7 8 24.1 100.00 27   Mostly Cloudy
15:00 Legend Double Dagger 23.8 14.9 57 12 4 24.1 99.96 28   LegendNANA
16:00 Legend Double Dagger 25.1 15.9 56 6 9 24.1 99.91 30   LegendNANA
17:00 Legend Double Dagger 24.8 15.9 57 10 8 24.1 99.87 29   Mostly Cloudy
18:00 Legend Double Dagger 23.4 15.6 61 17 9 24.1 99.83 28   LegendNANA
19:00 Legend Double Dagger 20.3 14.5 69 15 13 80.5 99.78     LegendNANA
20:00 Legend Double Dagger 18.6 13.9 74 14 7 24.1 99.77     Mostly Cloudy
21:00 Legend Double Dagger 17.4 13.2 76 15 10 24.1 99.73     LegendNANA
22:00 Legend Double Dagger 17.1 12.3 73 19 14 24.1 99.68     LegendNANA
23:00 Legend Double Dagger 17.9 12.0 68 20 15 24.1 99.60     Cloudy

Notes on Data Quality.

Legend

  • E = Estimated
  • M = Missing
  • NA = Not Available
  • ‡ = Partner data that is not subject to review by the National Climate Archives
Date modified: